Regional Weather Roundup
Issued by NWS Midland/Odessa, TX

Skip options and go directly to product.
Home | Oldest Version | Previous Version | Current Version | All | Graphics & Text | Save Text | Print | Product List | Glossary On

Skip product version selection by date and time.   
858
ASUS44 KMAF 282210
RWRMAF
MIDLAND AREA WEATHER ROUNDUP
NATIONAL WEATHER SERVICE MIDLAND TX
500 PM CDT TUE JUN 28 2016

...IN SOUTHWEST TEXAS AND SOUTHEAST NEW MEXICO...

CITY           SKY/WX    TMP DP  RH WIND       PRES   REMARKS
ALPINE         CLOUDY    69  61  76 NE14G33   30.29R THUNDER
ANDREWS        PTSUNNY   86  60  41 N13       30.15F
ARTESIA        MOSUNNY   88  59  37 SW17      30.17F
BIG SPRING     PTSUNNY   85  57  38 SE10      30.14F
CARLSBAD       PTSUNNY   79  62  56 SW16      30.16F
DRYDEN           N/A     95  62  33 NE18G24   30.03F
FORT STOCKTON  MOSUNNY   90  59  35 NE6       30.11F
GUAD PASS      LGT RAIN  65  61  87 NE18      30.33S
HOBBS          PTSUNNY   86  57  37 E15G23    30.20F
MARFA          CLOUDY   N/A N/A N/A N16       30.24F
MIDLAND AIRPK  MOSUNNY   92  59  32 SE9       30.13F
MIDLAND INTL   SUNNY     91  62  37 S7        30.12F
ODESSA         MOSUNNY   91  61  36 E9        30.14F
PECOS          CLOUDY    87  63  44 N7        30.11F
PRESIDIO       MOCLDY    83  65  55 W8        30.07F
SEMINOLE       CLOUDY    84  57  38 SW6       30.18F
SNYDER           N/A     84  67  57 E23G29    30.15R
WINK           SUNNY     89  59  36 SE9       30.11F
$$
...OTHER STATIONS IN TEXAS...

CITY           SKY/WX    TMP DP  RH WIND       PRES   REMARKS
ABILENE        LGT RAIN  74  70  87 E3        30.12F
AMARILLO       MOSUNNY   93  52  24 VRB3      30.16F
AUSTIN         TSTM      78  73  84 NE23G31   30.03R
BROWNSVILLE    CLOUDY    91  75  59 SE12      29.92F HX 101
CORPUS CHRISTI MOSUNNY   96  74  48 E12       29.91F HX 107
DALLAS FTW     PTSUNNY   96  67  38 NE18      29.97S HX 100
DEL RIO        MOSUNNY   98  62  30 CALM      29.94F
EL PASO        CLOUDY    76  67  73 CALM      30.16F
HOUSTON INT    LGT RAIN  76  74  93 W6        29.98F
LUBBOCK        MOSUNNY   91  58  32 SE15      30.15F
SAN ANGELO     SUNNY     87  72  60 NE12      30.08S
SAN ANTONIO    CLOUDY    91  68  46 NE10      29.97S THUNDER
WACO           PTSUNNY   86  72  62 SE8       30.01R
WICHITA FALLS  NOT AVBL
$$
...OTHER LOCATIONS IN NEW MEXICO...

CITY           SKY/WX    TMP DP  RH WIND       PRES   REMARKS
ALAMAGORDO     CLOUDY    75  68  78 CALM      30.21F
ALBUQUERQUE    MOSUNNY   90  42  18 VRB7G20   30.22F
CANNON AFB     SUNNY     89  53  29 VRB6      30.21F
CLOVIS         SUNNY     88  55  33 E9        30.22F
HOLLOMAN AFB   PTSUNNY   79  61  53 E5        30.18F
ROSWELL        MOSUNNY   92  56  29 MISG      30.16F
RUIDOSO        LGT RAIN  72  55  56 SE10G20   30.42F
SANTA FE       CLOUDY    85  40  20 SE6G22    30.31F
TRUTH OR CONSE MOSUNNY   87  53  31 E15G23    30.19F
TUCUMCARI      SUNNY     91  46  21 MISG      30.17F
$$

USA.gov is the U.S. government's official web portal to all federal, state and local government web resources and services.